Flag for Germany Weather past 2 weeks in Kassel, Hesse, Germany

Now
68 °F

Broken clouds.


Feels Like: 68 °F
Forecast: 50 / 70 °F
Wind: 3 mph from Southeast

Location: Kassel / Calden

Current Time: Oct 1, 2014 at 5:29:46 PM

Latest Report: Oct 1, 2014 at 4:50 PM


Visibility: N/A

Pressure: 30.30 "Hg

Humidity: 64%

Dew point: 55 °F

Location of KasselLocation

Historic Weather in Kassel — Graph

°F

Kassel temperature yesterday

Maximum temperature yesterday: 68 °F (at 12:50 PM)
Minimum temperature yesterday: 57 °F (at 6:50 AM)
Average temperature yesterday: 63 °F

Past Weeks' High & Low Weather Summary

 TemperatureHumidityPressure
High73 °F (Sep 17, 3:20 PM)100% (Sep 17, 6:50 AM)30.39 "Hg (Sep 17, 6:50 AM)
Low43 °F (Sep 22, 12:50 PM)54% (Sep 26, 6:20 AM)29.83 "Hg (Sep 24, 5:20 PM)
Average59 °F82%30.09 "Hg
* Reported Sep 16 4:20 PM — Oct 1 4:20 PM, Kassel, Weather by CustomWeather, © 2014

Note: Actual official high and low records may vary slightly from our data, if they occured in-between our weather recording intervals... More about our weather records

Advertising

Kassel weather history for previous 24 hours

 ConditionsComfort  
Time TempWeatherWind HumidityBarometerVisibility
4:20 PM
Oct 1
68 °FPassing clouds.3 mph69%30.30 "HgN/A
3:50 PM66 °FSunny.3 mph73%30.30 "Hg10 mi
3:20 PM68 °FPassing clouds.3 mph69%30.30 "HgN/A
2:50 PM66 °FScattered clouds.5 mph73%30.33 "Hg6 mi
2:20 PM66 °FScattered clouds.2 mph73%30.33 "Hg6 mi
1:50 PM66 °FBroken clouds.6 mph73%30.33 "Hg4 mi
1:20 PM64 °FBroken clouds.6 mph78%30.33 "Hg4 mi
12:50 PM63 °FPartly sunny.6 mph83%30.33 "Hg4 mi
12:20 PM61 °FFog.6 mph83%30.33 "Hg3 mi
11:50 AM59 °FFog.5 mph94%30.33 "Hg2 mi
11:20 AM59 °FFog.3 mph94%30.33 "Hg2 mi
10:50 AM57 °FFog.3 mph94%30.33 "Hg1 mi
10:20 AM55 °FFog.5 mph100%30.33 "Hg1 mi
9:50 AM54 °FFog.5 mph100%30.33 "Hg0 mi
9:20 AM54 °FFog.3 mph100%30.33 "Hg1 mi
8:50 AM54 °FFog.5 mph100%30.33 "Hg0 mi
8:20 AM54 °FFog.1 mph94%30.33 "Hg0 mi
7:50 AM52 °FFog.3 mph100%30.30 "Hg0 mi
7:20 AM52 °FFog.3 mph100%30.30 "Hg0 mi
6:50 AM52 °FFog.3 mph100%30.30 "Hg0 mi
6:20 AM52 °FFog.3 mph100%30.30 "Hg1 mi
5:50 AM52 °FFog.2 mph100%30.30 "Hg1 mi
9:50 PM
Sep 30
59 °FPartly cloudy.3 mph94%30.30 "Hg6 mi
9:20 PM59 °FMostly cloudy.7 mph94%30.30 "Hg5 mi
8:50 PM61 °FPartly cloudy.8 mph88%30.30 "HgN/A
8:20 PM59 °FPassing clouds.1 mph88%30.30 "Hg6 mi
7:50 PM59 °FScattered clouds.5 mph94%30.30 "Hg5 mi
7:20 PM63 °FBroken clouds.2 mph88%30.27 "HgN/A
6:50 PM64 °FBroken clouds.1 mph83%30.27 "HgN/A
6:20 PM64 °FScattered clouds.3 mph83%30.27 "HgN/A
5:50 PM64 °FScattered clouds.5 mph83%30.27 "HgN/A
5:20 PM66 °FScattered clouds.7 mph83%30.27 "HgN/A
Weather by CustomWeather, © 2014

See weather overviewHow to use our weather pages